Weather Roundup
Issued by NWS Chicago, IL

Home | Current Version | Previous Version | Graphics & Text | Print | Product List | Glossary On
Versions: 1 2 3 4 5 6 7 8 9 10 11 12 13 14 15 16 17 18 19 20 21 22 23 24 25 26 27 28 29 30 31 32 33 34 35 36 37 38 39 40 41 42 43 44 45 46 47 48 49 50
000
NZUS59 KLOT 281003
HRRLOT

CHICAGO AREA WEATHER ROUNDUP
NATIONAL WEATHER SERVICE CHICAGO/ROMEOVILLE IL
500 AM CDT TUE JUL 28 2015

NOTE: "FAIR" INDICATES FEW OR NO CLOUDS BELOW 12,000 FEET WITH NO
SIGNIFICANT WEATHER AND/OR OBSTRUCTIONS TO VISIBILITY.

* THESE STATIONS ARE NOT UNDER NWS QUALITY CONTROL. THEY ALSO MAY NOT
  REPORT WEATHER SUCH AS PRECIPITATION OR FOG.

ILZ005-006-012>014-019>023-281100-
NORTHEAST ILLINOIS

CITY           SKY/WX    TMP DP  RH WIND       PRES   REMARKS
OHARE          CLEAR     69  66  90 CALM      29.98F
MIDWAY         CLEAR     74  66  76 E5        29.98S
AURORA         CLEAR     66  62  87 E3        29.99S FOG
LANSING*       CLEAR     67  60  77 CALM      29.99S
WAUKEGAN       CLEAR     64  63  96 CALM      29.99F
DUPAGE AIRPORT CLEAR     68  65  90 CALM      29.99S
WHEELING       CLEAR     68  65  90 CALM      30.00S
NORTHERLY IS     N/A     72  67  84 E2          N/A
$$

WIZ051-052-058>065-066-070>072-281100-
SOUTHEAST WISCONSIN

CITY           SKY/WX    TMP DP  RH WIND       PRES   REMARKS
MILWAUKEE      PTCLDY    67  62  84 CALM      30.00S
KENOSHA*       CLEAR     61  60  97 CALM      30.00S FOG
RACINE*        CLEAR     67  62  84 CALM      30.01F
$$

INZ001>003-010>013-019-020-281100-
NORTHWEST INDIANA

CITY           SKY/WX    TMP DP  RH WIND       PRES   REMARKS
GARY*          CLEAR     70  64  83 SE7       29.99S
MICHIGAN CITY* NOT AVBL
RENSSELAER*    NOT AVBL
$$

LMZ740>746-281100-
SOUTHERN LAKE MICHIGAN

STATION/POSITION TIME  SKY/WX   TEMP WIND        PRES    VSBY
                                AIR  DIR/SP/G
                 (UTC)          (F)  (DEG/KT/KT) (MB)    (MI)
HARRISON CRIB    0900            74  110/  5/  6   N/A
BURNHAM HARBOR   1000            72   80/  1/  4   N/A
CALUMET HARBOR   0900            74   80/  4/  5   N/A
BURNS HARBOR     0900            77  130/  8/ 14 1015.9F
MICHIGAN CITY    0900            72  110/  8/  9   N/A
$$

ABBREVIATIONS USED IN REMARKS
   TC - TEMPERATURE IN CELSIUS
  WCI - WIND CHILL INDEX
   HX - HEAT INDEX
  VSB - VISIBILITY
$$


USA.gov is the U.S. government's official web portal to all federal, state and local government web resources and services.